Kenai, AK

8:06 AM AKST on December 12, 2019 (GMT -0900)
Kenai Municipal

Weather History for PAEN - October, 2019

Change the Weather History Date:

Saturday, October 5, 2019

  Actual Average Record
Temperature  
Mean Temperature 44 °F -  
Max Temperature 51 °F 46 °F 56 °F (1964)
Min Temperature 39 °F 33 °F 16 °F (1958)
Degree Days  
Heating Degree Days 22    
Moisture  
Dew Point 31 °F    
Average Humidity 59    
Maximum Humidity 73    
Minimum Humidity 35    
Precipitation  
Precipitation 0.00 in - - ()
Sea Level Pressure  
Sea Level Pressure 29.83 in    
Wind  
Wind Speed 8 mph (SW)    
Max Wind Speed 23 mph    
Max Gust Speed 28 mph    
Visibility 10 miles    
Events      
Averages and records for this station are not official NWS values.
T = Trace of Precipitation, MM = Missing Value Source: NWS Daily Summary

Daily Weather History Graph

Daily Weather History Graph

Search for Another Location

Airport or City:

Astronomy

Oct. 05, 2019 Rise Set
Actual Time 8:20 AM AKDT 7:24 PM AKDT
Civil Twilight 7:38 AM AKDT 8:06 PM AKDT
Nautical Twilight 6:49 AM AKDT 8:55 PM AKDT
Astronomical Twilight 5:57 AM AKDT 9:46 PM AKDT
Moon 5:33 PM AKDT (10/5) 11:20 PM AKDT (10/5)
Length of Visible Light 12h 28m
Length of Day
11h 03m
First Quarter, 51% of the Moon is Illuminated
Oct 5
First Quarter
Oct 13
Full
Oct 21
Last Quarter
Oct 27
New
Nov 4
First Quarter

Hourly Weather History & Observations

Time (AKDT) Temp. Windchill Dew Point Humidity Pressure Visibility Wind Dir Wind Speed Gust Speed Precip Events Conditions
12:53 AM 48.9 °F - 30.0 °F 48% 29.81 in 10.0 mi West 9.2 mph - N/A   Clear
1:53 AM 48.0 °F - 34.0 °F 58% 29.83 in 10.0 mi WSW 9.2 mph - N/A   Clear
2:53 AM 42.8 °F - 32.0 °F 66% 29.84 in 10.0 mi Calm Calm - N/A   Clear
3:53 AM 46.0 °F 42.5 °F 32.0 °F 58% 29.86 in 10.0 mi WSW 6.9 mph - N/A   Clear
4:53 AM 46.0 °F 43.1 °F 32.0 °F 58% 29.87 in 10.0 mi WNW 5.8 mph - N/A   Clear
5:53 AM 41.0 °F - 30.9 °F 67% 29.87 in 10.0 mi Calm Calm - N/A   Clear
6:53 AM 39.9 °F - 32.0 °F 73% 29.86 in 10.0 mi Calm Calm - N/A   Clear
7:53 AM 46.0 °F 42.5 °F 30.0 °F 54% 29.86 in 10.0 mi WSW 6.9 mph - N/A   Clear
8:53 AM 46.9 °F - 28.9 °F 50% 29.86 in 10.0 mi WSW 9.2 mph - N/A   Mostly Cloudy
9:53 AM 46.9 °F - 28.0 °F 48% 29.87 in 10.0 mi WSW 11.5 mph - N/A   Scattered Clouds
10:53 AM 46.0 °F 44.8 °F 32.0 °F 58% 29.88 in 10.0 mi Variable 3.5 mph - N/A   Clear
11:53 AM 46.9 °F - 23.0 °F 39% 29.88 in 10.0 mi Variable 6.9 mph - N/A   Scattered Clouds
12:53 PM 48.9 °F - 21.9 °F 35% 29.87 in 10.0 mi WSW 6.9 mph - N/A   Partly Cloudy
1:41 PM 48.9 °F - 27.0 °F 43% 29.86 in 10.0 mi SSW 12.7 mph - N/A   Overcast
1:53 PM 48.9 °F - 27.0 °F 43% 29.86 in 10.0 mi SW 15.0 mph - N/A   Overcast
2:53 PM 48.9 °F - 33.1 °F 54% 29.84 in 10.0 mi SW 17.3 mph - N/A   Mostly Cloudy
4:53 PM 48.0 °F - 35.1 °F 61% 29.81 in 10.0 mi SSW 21.9 mph - N/A   Partly Cloudy
5:53 PM 46.9 °F - 36.0 °F 66% 29.79 in 10.0 mi SSW 23.0 mph - N/A   Clear
6:53 PM 46.0 °F 38.3 °F 37.0 °F 71% 29.78 in 10.0 mi SSW 20.7 mph 27.6 mph N/A   Clear
7:53 PM 44.1 °F 37.7 °F 36.0 °F 73% 29.78 in 10.0 mi South 12.7 mph - N/A   Clear
8:53 PM 42.1 °F 37.1 °F 34.0 °F 73% 29.78 in 10.0 mi SE 8.1 mph - N/A   Clear
9:53 PM 41.0 °F 38.0 °F 30.9 °F 67% 29.77 in 10.0 mi South 4.6 mph - N/A   Clear
10:53 PM 39.0 °F 34.8 °F 30.9 °F 73% 29.77 in 10.0 mi South 5.8 mph - N/A   Clear
11:53 PM 39.9 °F - 30.0 °F 68% 29.77 in 10.0 mi Calm Calm - N/A   Clear